Regional Weather Roundup
Issued by NWS

Home | Current Version | Previous Version | Graphics & Text | Print | Product List | Glossary On
Versions: 1 2 3 4 5 6 7 8 9 10 11 12 13 14 15 16 17 18 19 20 21 22 23 24 25 26 27 28 29 30 31 32 33 34 35 36 37 38 39 40 41 42 43 44 45 46 47 48 49 50
000
ASUS43 KIND 270309
RWRIN

WEATHER ROUNDUP FOR INDIANA
NATIONAL WEATHER SERVICE INDIANAPOLIS IN
1100 PM EDT TUE JUL 26 2016

NOTE: "FAIR" INDICATES FEW OR NO CLOUDS BELOW 12,000 FEET WITH NO
SIGNIFICANT WEATHER AND/OR OBSTRUCTIONS TO VISIBILITY.

* - STATION DOES NOT REPORT WEATHER SUCH AS PRECIPITATION OR FOG.

+ - STATION NOT QUALITY CONTROLLED BY THE NATIONAL WEATHER SERVICE.
    USE DATA WITH CAUTION...ESPECIALLY DEWPOINT AND RELATIVE
    HUMIDITY OBSERVATIONS.

INZ001>003-010>013-019-020-270400-
NORTHWEST INDIANA

CITY           SKY/WX    TMP DP  RH WIND       PRES   REMARKS
GARY /AIRPORT/ PTCLDY    73  72  94 SE3       30.02S
KNOX *+        CLEAR     68  64  88 CALM      30.02S
LA PORTE +     CLEAR     71  69  94 CALM      30.03S
MICHIGAN CITY+ CLEAR     68  68 100 CALM      30.03R
MONTICELLO +   CLEAR     72  66  83 CALM      30.01S
RENSSELAER +   CLEAR     70  68  94 CALM      30.03R
VALPARAISO     PTCLDY    72  64  76 CALM      30.03R

$$

LMZ046-743>745-270400-
SOUTHERN LAKE MICHIGAN

STATION/POSITION TIME  TEMP    WIND        PRES    WAVE
                       AIR SEA DIR/SP/G            HT
                 (UTC) (F)     (DEG/KT/KT) (MB)    (FT)
BURNS HARBOR     0240   76      90/  4/  5 1016.9S
MICHIGAN CITY    0200   76      30/  6/  6   N/A
5NW MICH CITY    0300   76 77   90/  4/  6   N/A     0

$$

INZ004-005-014>016-021>024-270400-
NORTH CENTRAL INDIANA

CITY           SKY/WX    TMP DP  RH WIND       PRES   REMARKS
GOSHEN         CLEAR     73  64  73 CALM      30.02S
LOGANSPORT +   CLEAR     72  63  73 CALM      30.03S
PERU/GRISSOM   CLEAR     72  67  83 N3        30.01S
ROCHESTER +    CLEAR     72  70  94 CALM      30.03S
SOUTH BEND     CLEAR     69  64  84 N3        30.03S
WARSAW +       CLEAR     68  64  88 CALM      30.03S

$$

INZ006>009-017-018-025>027-270400-
NORTHEAST INDIANA

CITY           SKY/WX    TMP DP  RH WIND       PRES   REMARKS
ANGOLA *+      CLEAR     70  61  73 CALM      30.03S
AUBURN +       PTCLDY    72  61  68 CALM      30.03S
FORT WAYNE     PTCLDY    73  64  73 W5        30.02R
HUNTINGTON +   PTCLDY    71  67  86 CALM      30.02S

$$

INZ028-029-035-036-043>045-051>053-270400-
WEST CENTRAL INDIANA

CITY           SKY/WX    TMP DP  RH WIND       PRES   REMARKS
CRAWFORDSVL +  PTCLDY    67  67 100 CALM      30.03R
GREENCASTLE +  CLEAR     70  70 100 CALM      30.04R
LAFAYETTE      CLEAR     70  68  93 CALM      30.02R
TERRE HAUTE    PTCLDY    74  69  85 CALM      30.01R

$$

INZ030>032-037>040-046>048-054>057-064-065-270400-
CENTRAL INDIANA

CITY           SKY/WX    TMP DP  RH WIND       PRES   REMARKS
INDIANAPOLIS   PTCLDY    77  64  64 E3        30.03R
-EAGLE CREEK   CLOUDY    75  67  76 CALM      30.02R
KOKOMO *+      MOCLDY    72  63  73 CALM      30.03R
MARION +       CLEAR     68  65  88 CALM      30.03S
MT COMFORT *+  PTCLDY    70  68  94 CALM      30.03S
SHELBYVILLE    PTCLDY    73  68  84 N3        30.01S
ZIONSVILLE +   CLOUDY    67  66  97 CALM      30.04S

$$

INZ033-034-041-042-049-050-058-059-270400-
EAST CENTRAL INDIANA

CITY           SKY/WX    TMP DP  RH WIND       PRES   REMARKS
MUNCIE         CLEAR     72  66  81 CALM      30.03S

$$

INZ060-061-067>069-081>083-085>088-270400-
SOUTHWEST INDIANA

CITY           SKY/WX    TMP DP  RH WIND       PRES   REMARKS
EVANSVILLE     CLOUDY    79  76  90 SW3       30.01R
HUNTINGBURG *+ CLOUDY    79  73  83 E3        30.01R
WASHINGTON +   CLOUDY    76  76 100 MISG      30.00S

$$

INZ062-063-066-070>080-084-089>092-270400-
SOUTH CENTRAL AND SOUTHEAST INDIANA

CITY           SKY/WX    TMP DP  RH WIND       PRES   REMARKS
BLOOMINGTON    CLOUDY    73  71  93 CALM      30.02R
MADISON *+     CLOUDY    73  72  94 CALM      30.03S

$$




USA.gov is the U.S. government's official web portal to all federal, state and local government web resources and services.